sat.trackr.live / text

‹ back to catalog

JILIN-1 GAOFEN 03D15

NORAD 51839 · 2022-019R

PAYLOAD ACTIVE UNKNOWN

§ Identity

Operator
Country
PRC
Launch date
2022-02-27
Launch site
WSC
Launch vehicle
Mass (kg)
RCS (m²)

External: N2YO · Heavens-Above · Gunter

§ Orbital elements

Epoch: 2026-06-05T22:08:09.218688Z

Period
88.25 min
Inclination
97.3560°
Eccentricity
0.0012717
Mean motion
16.31769192 rev/d
Perigee alt
179.4 km
Apogee alt
196.1 km
Semi-major
6,565.9 km
B*
9.4850e-4
RAAN
254.9435°
Arg perigee
264.8257°
Mean anomaly
95.1587°
Rev number
23,834

§ Raw data

JILIN-1 GAOFEN 03D151 51839U 22019R   26156.92232892  .04986191  24754-5  94850-3 0  99912 51839  97.3560 254.9435 0012717 264.8257  95.1587 16.31769192238342

JSON: /api/v1/satellites/51839 · /tle

For live sub-satellite position, see the globe view (requires WebGL).

§ Visibility from observer

Set your observer location to see the next 7 days of passes ≥ 10°. The values pass through the URL so the page stays shareable.

No JS? Fill the form by hand. The geolocation button needs JavaScript.

§ Radio — SatNOGS DB

ModeDescriptionDownlinkUplink
FM Jillin Mysterious Pip 1.616 GHz

1 transmitter · refreshed weekly from db.satnogs.org